This demonstration page uses our WeatherBlox Daily Observations layout. Learn more.

Left ArrowRight Arrow

Hourly Observations for August 5, 2022

Temp ( °F °C ) Dew Point ( °F °C ) Humidity (%) Winds ( mph kmh ) Pressure ( in mb ) Visibility ( mi km ) Precip ( " mm )
12:53 am 00:53 Clear 82 27.8 70 21.1 67 67 SE 9 15 29.93 1013 10 16 0.00 0.00
1:53 am 01:53 Mostly Clear 80 26.7 71 21.7 74 74 SSE 9 15 29.93 1014 10 16 0.00 0.00
2:53 am 02:53 Mostly Cloudy 79 26.1 72 22.2 79 79 SSE 8 13 29.93 1014 10 16 0.00 0.00
3:53 am 03:53 Partly Cloudy 78 25.6 72 22.2 82 82 SE 8 13 29.91 1013 10 16 0.00 0.00
4:53 am 04:53 Partly Cloudy 78 25.6 72 22.2 82 82 SSE 8 13 29.91 1013 10 16 0.00 0.00
5:53 am 05:53 Partly Cloudy 77 25 72 22.2 85 85 SE 8 13 29.91 1013 10 16 0.00 0.00
6:53 am 06:53 Mostly Sunny 76 24.4 72 22.2 88 88 SSE 7 11 29.92 1013 10 16 0.00 0.00
7:53 am 07:53 Mostly Sunny 78 25.6 72 22.2 82 82 SE 9 15 29.92 1013 10 16 0.00 0.00
8:53 am 08:53 Mostly Sunny 82 27.8 72 22.2 72 72 SSE 12 19 29.93 1014 10 16 0.00 0.00
9:53 am 09:53 Mostly Sunny 84 28.9 72 22.2 67 67 SSE 10 17 29.93 1014 10 16 0.00 0.00
10:53 am 10:53 Mostly Sunny 89 31.7 71 21.7 55 55 S 10 17 29.92 1013 10 16 0.00 0.00
11:25 am 11:25 Sunny 91 32.8 70 21.1 50 50 SSE 13 20 29.88 1012 10 16 0.00 0.00
11:28 am 11:28 Mostly Sunny 92 33.3 71 21.7 51 51 SSE 13 20 29.88 1012 10 16 0.00 0.00
11:53 am 11:53 Mostly Sunny 94 34.4 69 20.6 44 44 SSE 15 24 29.92 1013 10 16 0.00 0.00
12:53 pm 12:53 Mostly Sunny 98 36.7 67 19.4 36 36 S 14 22 29.90 1012 10 16 0.00 0.00
1:53 pm 13:53 Mostly Sunny 100 37.8 67 19.4 34 34 S 17 28 29.88 1012 10 16 0.00 0.00
2:53 pm 14:53 Mostly Sunny 102 38.9 65 18.3 30 30 S 18 30 29.86 1011 10 16 0.00 0.00
3:53 pm 15:53 Mostly Sunny 102 38.9 66 18.9 31 31 S 17 28 29.84 1011 10 16 0.00 0.00
4:53 pm 16:53 Mostly Sunny 102 38.9 66 18.9 31 31 S 14 22 29.83 1010 10 16 0.00 0.00
5:53 pm 17:53 Mostly Sunny 100 37.8 66 18.9 33 33 SE 20 31 29.83 1010 10 16 0.00 0.00
6:53 pm 18:53 Sunny 97 36.1 68 20 39 39 SE 20 31 29.83 1010 10 16 0.00 0.00
7:53 pm 19:53 Sunny 94 34.4 69 20.6 44 44 SE 15 24 29.83 1010 10 16 0.00 0.00
8:53 pm 20:53 Mostly Clear 91 32.8 69 20.6 49 49 SE 15 24 29.84 1010 10 16 0.00 0.00
9:53 pm 21:53 Mostly Clear 89 31.7 69 20.6 52 52 SSE 12 19 29.86 1011 10 16 0.00 0.00
10:53 pm 22:53 Clear 88 31.1 68 20 52 52 SSE 12 19 29.86 1011 10 16 0.00 0.00
11:53 pm 23:53 Clear 86 30 68 20 55 55 SSE 12 19 29.86 1011 10 16 0.00 0.00

Powered by AerisWeather